TimePST,TemperatureF,Dew PointF,Humidity,Sea Level PressureIn,VisibilityMPH,Wind Direction,Wind SpeedMPH,Gust SpeedMPH,PrecipitationIn,Events,Conditions,WindDirDegrees,DateUTC
12:10 AM,26.6,24.8,93,29.56,3.0,Calm,Calm,-,N/A,,Overcast,0,2013-02-20 08:10:00
12:30 AM,26.6,24.8,93,29.56,4.0,NE,3.5,-,N/A,,Overcast,50,2013-02-20 08:30:00
12:50 AM,26.6,24.8,93,29.56,7.0,Calm,Calm,-,N/A,,Overcast,0,2013-02-20 08:50:00
1:10 AM,26.6,24.8,93,29.56,2.5,Calm,Calm,-,N/A,,Overcast,0,2013-02-20 09:10:00
1:30 AM,26.6,24.8,93,29.56,1.0,NNE,5.8,-,N/A,,Overcast,30,2013-02-20 09:30:00
1:50 AM,26.6,24.8,93,29.56,1.0,NE,3.5,-,N/A,,Overcast,40,2013-02-20 09:50:00
2:30 AM,26.6,24.8,93,29.56,1.2,Calm,Calm,-,N/A,,Overcast,0,2013-02-20 10:30:00
3:10 AM,26.6,24.8,93,29.56,1.2,Calm,Calm,-,N/A,,Overcast,0,2013-02-20 11:10:00
3:30 AM,26.6,24.8,93,29.57,1.2,Calm,Calm,-,N/A,,Overcast,0,2013-02-20 11:30:00
4:10 AM,26.6,24.8,93,29.58,1.0,Calm,Calm,-,N/A,,Overcast,0,2013-02-20 12:10:00
4:30 AM,26.6,24.8,93,29.59,0.5,Calm,Calm,-,N/A,,Overcast,0,2013-02-20 12:30:00
4:50 AM,26.6,24.8,93,29.59,1.2,North,6.9,-,N/A,,Overcast,360,2013-02-20 12:50:00
5:10 AM,26.6,24.8,93,29.60,1.0,North,10.4,16.1,N/A,,Overcast,350,2013-02-20 13:10:00
5:30 AM,26.6,24.8,93,29.60,0.8,North,9.2,-,N/A,,Overcast,350,2013-02-20 13:30:00
5:50 AM,26.6,24.8,93,29.61,0.8,North,11.5,-,N/A,,Overcast,350,2013-02-20 13:50:00
6:10 AM,26.6,24.8,93,29.62,1.5,North,10.4,-,N/A,,Overcast,360,2013-02-20 14:10:00
6:30 AM,26.6,23.0,86,29.63,1.2,North,11.5,-,N/A,,Overcast,360,2013-02-20 14:30:00
6:50 AM,26.6,23.0,86,29.64,2.0,North,8.1,-,N/A,,Overcast,360,2013-02-20 14:50:00
7:10 AM,26.6,24.8,93,29.66,0.5,North,11.5,16.1,N/A,,Overcast,360,2013-02-20 15:10:00
7:30 AM,26.6,24.8,93,29.67,0.5,North,11.5,-,N/A,,Overcast,350,2013-02-20 15:30:00
7:50 AM,26.6,23.0,86,29.68,0.5,North,12.7,17.3,N/A,,Overcast,350,2013-02-20 15:50:00
8:10 AM,26.6,23.0,86,29.69,2.5,North,12.7,18.4,N/A,,Scattered Clouds,350,2013-02-20 16:10:00
8:30 AM,26.6,23.0,86,29.70,3.0,North,11.5,-,N/A,,Partly Cloudy,350,2013-02-20 16:30:00
8:50 AM,26.6,23.0,86,29.71,1.2,North,10.4,-,N/A,,Mostly Cloudy,360,2013-02-20 16:50:00
9:10 AM,26.6,23.0,86,29.72,2.5,North,15.0,-,N/A,,Mostly Cloudy,360,2013-02-20 17:10:00
9:30 AM,26.6,23.0,86,29.72,5.0,North,15.0,19.6,N/A,,Overcast,360,2013-02-20 17:30:00
9:50 AM,28.4,23.0,80,29.73,3.0,North,11.5,-,N/A,,Overcast,360,2013-02-20 17:50:00
10:10 AM,28.4,23.0,80,29.75,5.0,North,6.9,-,N/A,,Overcast,360,2013-02-20 18:10:00
10:30 AM,32.0,23.0,69,29.75,3.0,North,9.2,-,N/A,,Mostly Cloudy,350,2013-02-20 18:30:00
10:50 AM,30.2,19.4,64,29.76,10.0,NNE,8.1,-,N/A,,Mostly Cloudy,20,2013-02-20 18:50:00
11:10 AM,32.0,21.2,64,29.76,7.0,NNE,9.2,-,N/A,,Mostly Cloudy,20,2013-02-20 19:10:00
11:30 AM,32.0,21.2,64,29.77,10.0,NNE,11.5,-,N/A,,Overcast,20,2013-02-20 19:30:00
11:50 AM,32.0,19.4,60,29.77,10.0,North,12.7,-,N/A,,Mostly Cloudy,10,2013-02-20 19:50:00
12:10 PM,32.0,19.4,60,29.77,10.0,North,15.0,-,N/A,,Overcast,350,2013-02-20 20:10:00
12:50 PM,32.0,17.6,55,29.77,10.0,North,12.7,-,N/A,,Mostly Cloudy,350,2013-02-20 20:50:00
1:10 PM,32.0,17.6,55,29.78,10.0,North,11.5,-,N/A,,Overcast,350,2013-02-20 21:10:00
1:30 PM,32.0,19.4,60,29.78,10.0,NNE,11.5,-,N/A,,Overcast,30,2013-02-20 21:30:00
1:50 PM,32.0,15.8,51,29.78,10.0,North,13.8,-,0.01,,Scattered Clouds,360,2013-02-20 21:50:00
2:10 PM,32.0,17.6,55,29.79,10.0,North,12.7,-,N/A,,Clear,360,2013-02-20 22:10:00
2:30 PM,32.0,17.6,55,29.79,10.0,North,16.1,20.7,N/A,,Clear,350,2013-02-20 22:30:00
2:50 PM,32.0,17.6,55,29.79,10.0,North,13.8,17.3,N/A,,Clear,350,2013-02-20 22:50:00
3:10 PM,32.0,17.6,55,29.80,10.0,North,13.8,19.6,N/A,,Clear,350,2013-02-20 23:10:00
3:50 PM,30.2,17.6,60,29.81,10.0,NNE,8.1,-,N/A,,Clear,20,2013-02-20 23:50:00
4:10 PM,28.4,17.6,64,29.81,10.0,NNE,6.9,-,N/A,,Clear,20,2013-02-21 00:10:00
4:30 PM,26.6,17.6,69,29.82,10.0,NNE,5.8,-,N/A,,Clear,30,2013-02-21 00:30:00
4:50 PM,26.6,15.8,64,29.83,10.0,NNE,6.9,-,N/A,,Clear,30,2013-02-21 00:50:00
5:30 PM,19.4,14.0,80,29.84,10.0,NE,5.8,-,N/A,,Clear,40,2013-02-21 01:30:00
5:50 PM,17.6,10.4,73,29.84,10.0,North,3.5,-,N/A,,Clear,350,2013-02-21 01:50:00
6:10 PM,12.2,8.6,85,29.85,10.0,Calm,Calm,-,N/A,,Clear,0,2013-02-21 02:10:00
6:30 PM,10.4,6.8,85,29.86,10.0,SSW,3.5,-,N/A,,Clear,200,2013-02-21 02:30:00
6:50 PM,10.4,6.8,85,29.86,10.0,SSW,5.8,-,N/A,,Clear,210,2013-02-21 02:50:00
7:30 PM,5.0,1.4,85,29.88,10.0,SSW,8.1,-,N/A,,Scattered Clouds,210,2013-02-21 03:30:00
7:50 PM,6.8,1.4,79,29.88,10.0,SSW,8.1,-,N/A,,Scattered Clouds,210,2013-02-21 03:50:00
8:10 PM,3.2,-0.4,85,29.88,10.0,South,3.5,-,N/A,,Clear,170,2013-02-21 04:10:00
8:30 PM,5.0,1.4,85,29.88,10.0,ESE,5.8,-,N/A,,Clear,120,2013-02-21 04:30:00
8:50 PM,6.8,3.2,85,29.89,10.0,SSE,5.8,-,N/A,,Clear,150,2013-02-21 04:50:00
9:10 PM,6.8,3.2,85,29.89,10.0,East,3.5,-,N/A,,Clear,100,2013-02-21 05:10:00
9:30 PM,1.4,-0.4,92,29.90,10.0,SW,3.5,-,N/A,,Clear,220,2013-02-21 05:30:00
9:50 PM,1.4,-0.4,92,29.90,10.0,Calm,Calm,-,N/A,,Clear,0,2013-02-21 05:50:00
10:10 PM,5.0,1.4,85,29.90,10.0,SSW,6.9,-,N/A,,Clear,200,2013-02-21 06:10:00
10:30 PM,5.0,-0.4,78,29.90,10.0,Calm,Calm,-,N/A,,Clear,0,2013-02-21 06:30:00
10:50 PM,1.4,-2.2,85,29.89,10.0,SSW,8.1,-,N/A,,Clear,210,2013-02-21 06:50:00
11:10 PM,6.8,1.4,79,29.89,10.0,SSW,4.6,-,N/A,,Clear,210,2013-02-21 07:10:00
11:30 PM,5.0,-0.4,78,29.89,10.0,SSW,6.9,-,N/A,,Clear,200,2013-02-21 07:30:00
11:50 PM,3.2,-0.4,85,29.89,10.0,SSE,5.8,-,N/A,,Clear,160,2013-02-21 07:50:00